Regional Weather Roundup
Issued by NWS

Home | Current Version | Previous Version | Text Only | Print | Product List | Glossary Off
Versions: 1 2 3 4 5 6 7 8 9 10 11 12 13 14 15 16 17 18 19 20 21 22 23 24 25 26 27 28 29 30 31 32 33 34 35 36 37 38 39 40 41 42 43 44 45 46 47 48 49 50

000
ASUS43 KFSD 301502
RWRSD

WEATHER ROUNDUP FOR SOUTH DAKOTA
NATIONAL WEATHER SERVICE SIOUX FALLS SD
1000 AM CDT THU OCT 30 2014

NOTE: "FAIR" INDICATES FEW OR NO CLOUDS BELOW 12,000 FEET WITH NO
SIGNIFICANT WEATHER AND/OR OBSTRUCTIONS TO VISIBILITY.


SDZ001>005-009-010-012>017-301600-
NORTHWEST AND NORTH CENTRAL SOUTH DAKOTA

CITY           SKY/WX    TMP DP  RH WIND       PRES   REMARKS
BUFFALO          N/A     34  32  92 N10       30.25R WCI  26
FAITH            N/A     36  33  89 N21       30.27R
MOBRIDGE       CLOUDY    38  33  82 N15G25    30.22R
$$

SDZ012>016-024>037-041>051-057-063-072>074-301600-
SOUTHWEST AND SOUTH CENTRAL SOUTH DAKOTA

CITY           SKY/WX    TMP DP  RH WIND       PRES   REMARKS
RAPID CTY ARPT SUNNY     48  34  58 CALM      30.28R
PIERRE         SUNNY     43  35  73 NW16      30.22R
CUSTER         SUNNY     45  30  55 CALM      30.29R
ELLSWORTH AFB  SUNNY     49  33  54 N10       30.27R
PHILIP         SUNNY     44  35  70 NW12      30.28R
PINE RIDGE     SUNNY     41  31  67 W3        30.30R
SPEARFISH      FAIR      46  32  57 NW10      30.30R
WINNER         FAIR      46  36  68 NW17      30.21R
$$

SDZ004>011-016>023-039-040-301600-
NORTHEAST SOUTH DAKOTA

CITY           SKY/WX    TMP DP  RH WIND       PRES   REMARKS
ABERDEEN       CLOUDY    39  37  92 N17G25    30.17R
WATERTOWN      SUNNY     43  39  86 N10       30.08R
SISSETON         N/A     42  41  96 N16       30.11R
$$

SDZ017-020-022-023-036>040-048>070-301600-
SOUTHEAST SOUTH DAKOTA

CITY           SKY/WX    TMP DP  RH WIND       PRES   REMARKS
SIOUX FALLS    MOSUNNY   49  36  61 N12       30.06R
HURON          SUNNY     42  37  82 NW18      30.14R
CHAMBERLAIN    SUNNY     44  37  75 NW24G32   30.17R
MITCHELL       SUNNY     45  39  79 N22G28    30.13R
YANKTON        SUNNY     46  37  71 NW18G24   30.10R
$$

ABBREVIATIONS USED IN REMARKS
   TC - TEMPERATURE IN CELSIUS
  WCI - WIND CHILL INDEX
   HX - HEAT INDEX
  VSB - VISIBILITY




USA.gov is the U.S. government's official web portal to all federal, state and local government web resources and services.